Tracking 19219 objects as of 22-Jul-2018
HD Live streaming from Space Station
objects crossing your sky now

FLOCK 3P 14

Track FLOCK 3P 14 now!
10-day predictions
FLOCK 3P 14 is classified as:


NORAD ID: 42012
Int'l Code: 2017-008BS
Perigee: 494.9 km
Apogee: 503.0 km
Inclination: 97.4 °
Period: 94.4 minutes
Semi major axis: 6869 km
RCS: Unknown
Launch date: February 15, 2017
Source: United States (US)
Launch site: SRIHARIKOTA (SRI)
aabbcc
Your satellite tracking list
Your tracking list is empty




NASA's NSSDC Master Catalog

Two Line Element Set (TLE):
1 42012U 17008BS  18202.74038981  .00002096  00000-0  87770-4 0  9998
2 42012  97.4490 267.5747 0005857 249.5896 110.4712 15.24661957 79176
Source of the keplerian elements: AFSPC